Location: Caltech
(34.1382°N, 118.1253°W)
Time: 20:23:13
(UTC-07:00)

Cosmos 1937 Rocket - Visible Passes

Search period start: 03 August 2015 00:00
Search period end: 13 August 2015 00:00
Orbit: 748 x 780 km, 74.0° (Epoch: 03 August)

Date Brightness Start Highest point End Pass type
(mag) Time Alt. Az. Time Alt. Az. Time Alt. Az.
03 Aug 4.4 22:29:29 10° N 22:33:23 39° NE 22:33:23 39° NE visible
04 Aug 6.1 00:12:40 10° WNW 00:13:34 13° WNW 00:13:34 13° WNW visible
04 Aug 4.8 21:51:54 10° N 21:55:56 24° ENE 21:55:56 24° ENE visible
04 Aug 5.3 23:33:27 10° NW 23:36:07 25° WNW 23:36:07 25° WNW visible
05 Aug 5.4 21:15:03 10° NNE 21:17:27 14° ENE 21:18:32 13° ENE visible
05 Aug 4.3 22:54:52 10° NNW 22:58:43 47° NW 22:58:43 47° NW visible
06 Aug 3.6 22:16:39 10° NNW 22:21:20 67° NNE 22:21:20 67° NNE visible
07 Aug 4.1 21:38:45 10° N 21:43:31 38° ENE 21:44:00 37° E visible
07 Aug 5.6 23:21:31 10° NW 23:24:11 19° W 23:24:11 19° W visible
08 Aug 4.9 21:01:16 10° NNE 21:05:06 21° ENE 21:06:41 19° E visible
08 Aug 4.6 22:42:29 10° NW 22:46:53 36° W 22:46:53 36° W visible
09 Aug 5.5 20:24:47 10° NE 20:26:31 12° ENE 20:28:33 10° E visible
09 Aug 3.5 22:04:00 10° NNW 22:09:08 71° WSW 22:09:38 66° SW visible
10 Aug 3.5 21:25:51 10° N 21:30:58 62° ENE 21:32:25 44° SE visible
10 Aug 6.0 23:10:30 10° WNW 23:12:29 12° W 23:12:37 12° W visible
11 Aug 4.3 20:48:01 10° N 20:52:39 33° ENE 20:55:16 21° ESE visible
11 Aug 5.3 22:30:26 10° NW 22:34:29 23° W 22:35:28 21° WSW visible
12 Aug 5.0 20:10:40 10° NNE 20:14:12 19° ENE 20:17:55 10° ESE visible
12 Aug 4.4 21:51:33 10° NNW 21:56:26 43° WSW 21:58:22 30° SSW visible
